Home   Weather   São Félix do Xingu   Past weeks
Flag for Brazil

Past Weather in São Félix do Xingu, Pará, Brazil — Yesterday and Last 2 Weeks

Now
81 °F

Clear.


Feels Like: 85 °F
Forecast: 94 / 69 °F
Wind: 5 mph from Northwest

Location: Maraba Airport

Current Time: Aug 24, 2019 at 12:15:11 am

Latest Report: Aug 23, 2019 at 11:00 pm


Visibility: 10 mi

Pressure: 29.98 "Hg

Humidity: 79%

Dew Point: 73 °F

Location of São Félix do XinguLocation

Past Weather in São Félix do Xingu — Graph

°F

São Félix do Xingu Temperature Yesterday

Maximum temperature yesterday: 97 °F (at 2:00 pm)
Minimum temperature yesterday: 73 °F (at 1:00 am)
Average temperature yesterday: 84 °F

High & Low Weather Summary for the Past Weeks

 TemperatureHumidityPressure
High100 °F (Aug 11, 1:00 pm)100% (Aug 16, 6:00 am)30.04 "Hg (Aug 16, 6:00 am)
Low66 °F (Aug 11, 6:00 am)24% (Aug 10, 4:00 pm)29.83 "Hg (Aug 12, 4:00 pm)
Average83 °F65%29.94 "Hg
* Reported Aug 8 11:00 pm — Aug 23 11:00 pm, São Félix do Xingu. Weather by CustomWeather, © 2019

Note: Actual official high and low records may vary slightly from our data, if they occured in-between our weather recording intervals... More about our weather records

Advertising

São Félix do Xingu Weather History for the Previous 24 Hours

Scroll right to see more
 ConditionsComfort  
Time TempWeatherWind HumidityBarometerVisibility
11:00 pm
Fri, Aug 23
81 °FClear.5 mph79%29.98 "Hg10 mi
10:00 pm82 °FClear.6 mph70%29.98 "Hg10 mi
9:00 pm82 °FClear.5 mph70%29.95 "Hg10 mi
8:00 pm84 °FClear.5 mph66%29.92 "Hg10 mi
7:00 pm86 °FPassing clouds.6 mph66%29.92 "HgN/A
6:00 pm90 °FSunny.7 mph52%29.89 "Hg10 mi
5:00 pm93 °FPassing clouds.8 mph47%29.89 "HgN/A
4:00 pm97 °FScattered clouds.8 mph42%29.89 "HgN/A
3:00 pm95 °FScattered clouds.10 mph41%29.89 "HgN/A
2:00 pm97 °FScattered clouds.5 mph42%29.92 "HgN/A
1:00 pm93 °FPartly sunny.1 mph53%29.98 "HgN/A
12:00 pm93 °FPartly sunny.6 mph49%29.98 "HgN/A
11:00 am90 °FScattered clouds.7 mph55%30.01 "HgN/A
10:00 am88 °FSunny.5 mph62%30.01 "Hg10 mi
9:00 am82 °FSunny.6 mph74%30.01 "Hg10 mi
8:00 am77 °FSunny.7 mph89%30.01 "Hg10 mi
7:00 am75 °FSunny.3 mph89%29.98 "Hg10 mi
6:00 am75 °FClear.5 mph89%29.98 "Hg6 mi
5:00 am75 °FClear.3 mph89%29.95 "Hg10 mi
4:00 am77 °FClear.2 mph83%29.95 "Hg10 mi
3:00 am73 °FClear.2 mph94%29.95 "Hg10 mi
2:00 am75 °FClear.2 mph89%29.95 "Hg10 mi
1:00 am73 °FClear.2 mph94%29.98 "Hg10 mi
12:00 am75 °FClear.1 mph89%29.98 "Hg10 mi
Weather by CustomWeather, © 2019

See weather overview